User: anonymous
Location: CNYAC Observatory
(43.2150°N, 74.9500°W)
Time: 20:34:40
(UTC-04:00)
Language:

Meteor 1-22 Rocket - Orbit

View from above orbital plane
View from above orbital plane
View from above satellite
View from above satellite

Ground track
Ground track

The orbit data is extracted from the following two-line orbital elements,

1 08294U 75087B   14205.45211189  .00000016  00000-0  11670-5 0   238
2 08294 081.2239 334.3889 0107863 148.8680 274.2615 14.08504251995817
Epoch (UTC): 24 July 2014 10:51:02
Eccentricity: 0.0107863
inclination: 81.2239°
perigee height: 786 km
apogee height: 942 km
right ascension of ascending node: 334.3889°
argument of perigee: 148.8680°
revolutions per day: 14.08504251
mean anomaly at epoch: 274.2615°
orbit number at epoch: 99581

The dashed part of the orbit path shows where the satellite is in the earth's shadow,  

DLR